KB0OLA Weather Reports


time (UTC)temp
F
wind
direction
speed
knots
gust
knots
rain 1hr
in
rain 24hr
in
rain mn
in
humidity
%
barometer
mb
20260508213518 75 338 2.6 5.2 0.00 0.00 0.00 23 1016.2
20260508212517 75 248 4.3 9.6 0.00 0.00 0.00 23 1016.3
20260508211517 75 315 2.6 6.1 0.00 0.00 0.00 24 1016.3
20260508210517 74 293 3.5 8.7 0.00 0.00 0.00 26 1016.4
20260508205517 74 270 3.5 7.8 0.00 0.00 0.00 23 1016.5
20260508204518 74 248 4.3 12.2 0.00 0.00 0.00 22 1016.5
20260508203518 74 293 1.7 7.0 0.00 0.00 0.00 24 1016.6
20260508202518 74 248 5.2 9.6 0.00 0.00 0.00 23 1016.6
20260508201537 74 270 2.6 7.8 0.00 0.00 0.00 23 1016.7
20260508200517 73 293 2.6 8.7 0.00 0.00 0.00 24 1016.7
20260508195517 73 203 1.7 6.1 0.00 0.00 0.00 24 1016.8
20260508194518 72 248 3.5 7.8 0.00 0.00 0.00 27 1016.8
20260508193537 72 248 3.5 9.6 0.00 0.00 0.00 29 1016.9
20260508192517 71 270 3.5 8.7 0.00 0.00 0.00 28 1016.9
20260508191517 71 248 3.5 8.7 0.00 0.00 0.00 28 1017.0
20260508190517 71 270 2.6 6.1 0.00 0.00 0.00 28 1017.1
20260508185517 71 248 3.5 9.6 0.00 0.00 0.00 29 1017.0
20260508184538 71 203 1.7 6.1 0.00 0.00 0.00 32 1017.2
20260508183517 70 203 1.7 5.2 0.00 0.00 0.00 32 1017.3
20260508182537 70 225 0.9 3.5 0.00 0.00 0.00 31 1017.4
20260508181517 69 248 1.7 6.1 0.00 0.00 0.00 33 1017.5
20260508180517 69 248 2.6 7.8 0.00 0.00 0.00 34 1017.5
20260508175517 69 225 1.7 8.7 0.00 0.00 0.00 35 1017.7
20260508174517 68 203 1.7 7.0 0.00 0.00 0.00 37 1017.7
20260508173517 68 248 3.5 7.0 0.00 0.00 0.00 38 1017.7
20260508172518 68 203 0.9 4.3 0.00 0.00 0.00 40 1017.6
20260508171517 68 248 3.5 7.8 0.00 0.00 0.00 37 1017.7
20260508170517 67 225 0.9 6.1 0.00 0.00 0.00 36 1017.7
20260508165517 66 203 2.6 6.1 0.00 0.00 0.00 39 1017.6
20260508164517 66 0.0 0.0 0.00 0.00 0.00 37 1017.6
20260508163517 65 0.0 0.0 0.00 0.00 0.00 36 1017.5
20260508162517 64 0.0 0.0 0.00 0.00 0.00 41 1017.5
20260508161517 64 0.0 0.0 0.00 0.00 0.00 44 1017.4
20260508160517 63 0.0 0.0 0.00 0.00 0.00 43 1017.5
20260508155517 63 0.0 0.0 0.00 0.00 0.00 44 1017.5
20260508154516 62 0.0 0.0 0.00 0.00 0.00 45 1017.4
20260508153516 61 0.0 0.0 0.00 0.00 0.00 47 1017.4
20260508152516 60 0.0 0.0 0.00 0.00 0.00 48 1017.4
20260508151517 59 0.0 0.0 0.00 0.00 0.00 49 1017.3
20260508150516 57 0.0 0.0 0.00 0.00 0.00 49 1017.3
20260508145518 56 0.0 0.0 0.00 0.00 0.00 51 1017.2
20260508144517 55 0.0 0.0 0.00 0.00 0.00 53 1017.1
20260508143517 54 0.0 0.0 0.00 0.00 0.00 54 1017.0
20260508142516 52 0.0 0.0 0.00 0.00 0.00 56 1017.0
20260508141518 50 0.0 0.0 0.00 0.00 0.00 62 1016.9
20260508140519 49 0.0 0.0 0.00 0.00 0.00 65 1016.8
20260508135518 48 0.0 0.0 0.00 0.00 0.00 66 1016.8
20260508134518 47 0.0 0.0 0.00 0.00 0.00 64 1016.7
20260508133519 46 0.0 0.0 0.00 0.00 0.00 64 1016.5
20260508132518 45 0.0 0.0 0.00 0.00 0.00 62 1016.5
20260508131518 45 0.0 0.0 0.00 0.00 0.00 62 1016.4
20260508130518 44 0.0 0.0 0.00 0.00 0.00 61 1016.2
20260508125558 45 0.0 0.0 0.00 0.00 0.00 61 1016.2
20260508124518 45 0.0 0.0 0.00 0.00 0.00 60 1016.0
20260508123519 45 0.0 0.0 0.00 0.00 0.00 60 1015.9
20260508122518 45 0.0 0.0 0.00 0.00 0.00 58 1015.8
20260508121538 46 0.0 0.0 0.00 0.00 0.00 58 1015.7
20260508120518 46 0.0 0.0 0.00 0.00 0.00 58 1015.6
20260508115518 46 0.0 0.0 0.00 0.00 0.00 59 1015.5
20260508114518 46 0.0 0.0 0.00 0.00 0.00 59 1015.5
20260508113518 46 0.0 0.0 0.00 0.00 0.00 60 1015.5
20260508112518 46 0.0 0.0 0.00 0.00 0.00 60 1015.4
20260508111538 46 0.0 0.0 0.00 0.00 0.00 60 1015.4
20260508110517 46 0.0 0.0 0.00 0.00 0.00 60 1015.4
20260508105518 46 0.0 0.0 0.00 0.00 0.00 60 1015.3
20260508104518 47 0.0 0.0 0.00 0.00 0.00 58 1015.3
20260508103517 47 0.0 0.0 0.00 0.00 0.00 57 1015.2
20260508102537 47 0.0 0.0 0.00 0.00 0.00 57 1015.2
20260508101518 47 0.0 0.0 0.00 0.00 0.00 57 1015.2
20260508100517 47 0.0 0.0 0.00 0.00 0.00 56 1015.1
20260508095517 47 0.0 0.0 0.00 0.00 0.00 57 1015.1
20260508094517 48 0.0 0.0 0.00 0.00 0.00 56 1015.2
20260508093518 48 0.0 0.0 0.00 0.00 0.00 55 1015.2
20260508092537 48 0.0 0.0 0.00 0.00 0.00 55 1015.0
20260508091517 49 0.0 0.0 0.00 0.00 0.00 55 1015.0
20260508090517 49 0.0 0.0 0.00 0.00 0.00 56 1015.0
20260508085517 49 0.0 0.0 0.00 0.00 0.00 56 1014.9
20260508084517 48 0.0 0.0 0.00 0.00 0.00 58 1015.0
20260508083538 47 0.0 0.0 0.00 0.00 0.00 60 1014.9
20260508082518 47 0.0 0.0 0.00 0.00 0.00 61 1014.9
20260508081517 47 0.0 0.0 0.00 0.00 0.00 60 1014.9
20260508080537 47 0.0 0.0 0.00 0.00 0.00 59 1014.9
20260508075517 48 0.0 0.0 0.00 0.00 0.00 59 1014.9
20260508074517 48 0.0 0.0 0.00 0.00 0.00 58 1014.8
20260508073537 49 0.0 0.0 0.00 0.00 0.00 56 1014.9
20260508072517 50 0.0 0.0 0.00 0.00 0.00 55 1014.9
20260508071517 50 0.0 0.0 0.00 0.00 0.00 55 1014.9
20260508070517 51 0.0 0.0 0.00 0.00 0.00 53 1014.8
20260508065517 51 0.0 0.0 0.00 0.00 0.00 53 1014.8
20260508064517 51 0.0 0.0 0.00 0.00 0.00 53 1014.8
20260508063517 50 0.0 0.0 0.00 0.00 0.00 54 1014.6
20260508062517 50 0.0 0.0 0.00 0.00 0.00 54 1014.5
20260508061538 50 0.0 0.0 0.00 0.00 0.00 54 1014.5
20260508060537 51 0.0 0.0 0.00 0.00 0.00 54 1014.5
20260508055517 51 0.0 0.0 0.00 0.00 0.00 52 1014.4
20260508054518 52 0.0 0.0 0.00 0.00 0.00 51 1014.4
20260508053517 53 0.0 0.0 0.00 0.00 0.00 50 1014.4
20260508052517 54 0.0 0.0 0.00 0.00 0.00 48 1014.4
20260508051517 55 0.0 0.0 0.00 0.00 0.00 46 1014.3
20260508050517 57 0.0 0.0 0.00 0.00 0.00 44 1014.2
20260508045517 57 0.0 0.0 0.00 0.00 0.00 43 1014.2
20260508044517 57 0.0 0.0 0.00 0.00 0.00 43 1014.1
20260508043537 56 0.0 0.0 0.00 0.00 0.00 44 1014.2
20260508042517 56 0.0 0.0 0.00 0.00 0.00 45 1014.1
20260508041517 56 0.0 0.0 0.00 0.00 0.00 45 1014.1
20260508040517 55 0.0 0.0 0.00 0.00 0.00 46 1014.1
20260508035517 55 0.0 0.0 0.00 0.00 0.00 47 1014.0
20260508034517 56 0.0 0.0 0.00 0.00 0.00 46 1014.0
20260508033517 57 0.0 0.0 0.00 0.00 0.00 46 1013.8
20260508032516 57 0.0 0.0 0.00 0.00 0.00 45 1013.7
20260508031516 59 0.0 0.0 0.00 0.00 0.00 44 1013.7
20260508030537 60 0.0 0.0 0.00 0.00 0.00 43 1013.6
20260508025516 62 0.0 0.0 0.00 0.00 0.00 42 1013.5
20260508024517 63 0.0 0.0 0.00 0.00 0.00 38 1013.5
20260508023517 65 0.0 0.0 0.00 0.00 0.00 35 1013.4
20260508022537 66 0.0 0.0 0.00 0.00 0.00 32 1013.4
20260508021537 68 0.0 0.0 0.00 0.00 0.00 31 1013.3
20260508020516 69 0.0 0.0 0.00 0.00 0.00 28 1013.3
20260508015517 70 0.0 0.0 0.00 0.00 0.00 28 1013.3
20260508014517 70 0.0 0.0 0.00 0.00 0.00 27 1013.3
20260508013517 71 0.0 0.0 0.00 0.00 0.00 27 1013.4
20260508012516 72 0.0 0.0 0.00 0.00 0.00 26 1013.3
20260508011516 73 0.0 0.9 0.00 0.00 0.00 26 1013.5
20260508010518 74 225 0.9 5.2 0.00 0.00 0.00 25 1013.6
20260508005518 74 0.0 0.0 0.00 0.00 0.00 26 1013.6
20260508004518 74 270 1.7 7.0 0.00 0.00 0.00 25 1013.5
20260508003518 74 158 2.6 6.1 0.00 0.00 0.00 25 1013.5
20260508002518 75 203 0.9 4.3 0.00 0.00 0.00 25 1013.5
20260508001518 75 180 0.9 4.3 0.00 0.00 0.00 25 1013.6
20260508000518 75 0.0 0.9 0.00 0.00 0.00 24 1013.9
20260507235518 75 248 0.9 3.5 0.00 0.00 0.00 24 1014.0
20260507234518 74 0.0 0.0 0.00 0.00 0.00 26 1014.1
20260507233518 74 180 0.9 5.2 0.00 0.00 0.00 25 1014.2
20260507232518 73 0.0 0.0 0.00 0.00 0.00 27 1014.3
20260507231519 72 180 1.7 4.3 0.00 0.00 0.00 26 1014.4
20260507230558 72 0 0.9 3.5 0.00 0.00 0.00 26 1014.5
20260507225518 72 0 0.9 6.1 0.00 0.00 0.00 26 1014.7
20260507224518 71 0.0 0.0 0.00 0.00 0.00 27 1015.0
20260507223518 71 0.0 0.0 0.00 0.00 0.00 29 1015.1
20260507222518 70 0.0 1.7 0.00 0.00 0.00 28 1015.2
20260507221518 70 270 0.9 4.3 0.00 0.00 0.00 27 1015.4
20260507220517 70 248 2.6 7.8 0.00 0.00 0.00 28 1015.4
20260507215519 71 225 0.9 6.1 0.00 0.00 0.00 26 1015.5
20260507214517 71 270 1.7 7.8 0.00 0.00 0.00 26 1015.6